Witamy w enduhub !

enduhub
enduhub [\indu'hab, en-\].
endurance [\in-ˈdu̇r-ən(t)s, -ˈdyu̇r-, en-\] : zdolność do długotrwałego wykonywania czynności powszechnie uważanej za trudną.
hub [\ˈhəb\] : centralne i najbardziej aktywne miejsce lub element.

Szukasz wyników po różnych stronach ?

Znajdź swoje wyniki, sprawdź znajomych.

http://enduhub.com to wyszukiwarka wyników zawodów sportowych.Znajdziesz u nas wyniki biegów, triathlonu,kolarstwa,pływania i innych.


Szukasz wyników po różnych stronach ?

Zarejestruj teraz ! Dlaczego warto ?

  • Możesz dodawać wyniki do swojej prywatnej listy.
  • Możesz sprawdzić swój poziom na tle rówieśników - Enduhub Performace Index.
  • Możesz zgłaszać wyniki do załadowania - Zgłoś wyniki.
  • Możesz planować wynik i starty w kalendarzu - Planuj.
  • Możesz założyć drużynę i zaprosić znajomych - Zespoły.
  • Stay tuned ..... !

XIV Atlantis Bieg Opolski

Wyniki - 2 lipca 2016, Opole

Msc
Nr
K
M
-
-
#1 101600Oliwa PiotrTułowice00:26:1900:25:27-86-7411-
#2 102615Taborska AnnaCGW Razem w Biegu/ PZU SPORT TEAM,00:26:2100:26:1316-916--
#3 103905Zięba MichałPolaris, Opole00:26:2600:26:18-873575-9
#4 104904Dziadkiewicz KarolinaAtlantis Deweloper, Prószków00:26:3300:26:2217--17--
#5 105856Jalowski Jarosław-, Opole00:26:3300:26:19-883676--
#6 106734Tokarska MagdalenaOpole00:26:4100:26:3818-1018--
#7 107743Miśkiewicz DorotaOlesno00:26:5100:26:3919--19--
#8 108857Lewko Łukasz-, Będzin00:26:5200:26:37-89----
#9 109727Dudek AnnaOpole00:26:5200:26:3920-1120--
#10 110787Potyrała GrzegorzCGW Razem w Biegu/ PZU SPORT TEAM,00:26:5600:26:47-903777--
#11 111786Mazik PatrykDIEHL Controls Running Team, Namysłów00:27:0300:27:01-91-7812-
#12 112704Osiewacz AnnaUKS "Jagiełło" Lipie, Zbrojewsko00:27:1000:27:0721-----
#13 113871Dąbrowski IreneuszRajsport Active, Opole00:27:1900:27:07-923879--
#14 114788Rasztar MonikaDiehl Controls Running Team, Namysłów00:27:2200:27:1822--214-
#15 115636Wojciechowicz MagdalenaCGW- RAZEM W BIEGU, Opole00:27:2400:27:1423-1222--
#16 116876Piasecka MartaCCIG, Opole00:27:2600:27:1224-1323--
#17 117874Kościański DominikCCIG, Opole00:27:3300:27:20-933980--
#18 118698Żółtkiewicz NataliaKB Maniac Poznań, Opole00:27:3900:27:2825-1424--
#19 119761Jackowski LeszekSzczepanek00:27:4200:27:33-94-81--
#20 120694Zelmanowicz-Szłapa EwaIzbicko00:27:4400:27:3326--25--
#21 121650Nowosielecki KrzysztofPolaris, Opole00:27:4900:27:43-954082-10
#22 122879Haładus MarcelinaGłubczyce00:28:0300:28:0127-----
#23 123613Szwancarz AnitaCGW Razem w Biegu/ PZU SPORT TEAM,00:28:0600:27:5728--26--
#24 124604Ilnicka MonikaRacławice Opolskie00:28:0700:27:5029--27--
#25 125832Kołodziej SylwiaOpole00:28:1000:27:5030-1528--
#26 126833Kołodziej MarekOpole00:28:1000:27:50-964183--
#27 127611Banaś MagdalenaCGW Razem w Biegu/ PZU SPORT TEAM,00:28:1200:28:0431-1629--
#28 128828Danik KrzysztofBieg Opolski, Opole00:28:1400:28:00-974284--
#29 129920Birecki WacławOpole00:28:2100:28:06-984385--
#30 130803Obierzyńska Dominika-, Opole00:28:2300:28:0832-1730--
#31 131684Król MieczysławGymBoxCF Opole, Opole00:28:2300:28:01-994486--
#32 132647Telega JoannaPolaris, Opole00:28:2800:28:2133-1831-11
#33 133683Żurakowski WojciechPrudnik00:28:2800:28:10-100-87--
#34 134747Mazurek GrzegorzGATTA Great Idea, Opole00:28:3300:28:22-1014588--
#35 135800Tracz SławomirOpole00:28:3400:28:28-1024689--
#36 136603Langert SławomirPrudnik00:28:3400:28:15-103-90--
#37 137700Giedrojc IwonaPZU Sport Team, Opole00:28:3500:28:0834-1932--
#38 138885Siek Michał-, Brzeg00:28:3800:28:26-104-91--
#39 139638Sterniuk PiotrKlub Jeżozwierza, Opole00:28:3900:28:20-105479213-
#40 140825Szot Dorota-, Ligota Prószkowska00:28:4700:28:2735--33--
#41 141807Danielewicz AnnaKędzierzyn-Koźle00:29:0200:28:5836--34--
#42 142660Pietruszyński DariuszOpole00:29:0900:28:55-1064893--
#43 143756Hoczek AgnieszkaPrzysiecz00:29:1900:28:5937--35--
#44 144639Gola MichałPolaris, Katowice00:29:2100:29:13-107---12
#45 145652Smokowski MateuszNIE dla rozdzielenia Gminy Dobrzeń Wielki,00:29:3000:29:10-108-9414-
#46 146808Dudek JanKędzierzyn-Koźle00:29:3500:29:31-109-95--
#47 147829Kośniewska-Nowak JoannaOpole00:29:3700:29:2738-2036--
#48 148617Smolarek ElżbietaNOKIA, Wrocław00:29:4500:29:3239---5-
#49 149823Krysiewicz MarcinWarszawa00:29:4900:29:33-110----
#50 150711Ciborek-Sofińska MonikaOpole00:29:5000:29:4140-2137--
#51 151644Kowalkowski PrzemysławOpole00:29:5200:29:26-1114996--
#52 152735Potempa AnetaKielcza00:29:5300:29:3241--38--
#53 153861Wojtkowski MateuszSkorogoszcz00:29:5300:29:31-112-97--
#54 154626Soszyński TomaszPolaris, Gogolin00:29:5500:29:46-113-98-13
#55 155762Ploch AndrzejPławniowice00:29:5500:29:44-114----
#56 156622Kokott KatarzynaPolaris, Opole00:29:5600:29:4942-2239-14
#57 157875Zdeb BarbaraCCIG, Opole00:29:5700:29:4443-2340--
#58 158712Mehl PawełOpole00:30:0000:29:42-1155099--
#59 159744Sikorski RafałBrzeg00:30:0600:29:44-116-100--
#60 160750Czaban TomaszMB-Service GmbH, Dietzenbach00:30:0900:29:54-117----
#61 161810Ogonowski Bartosz-, Opole00:30:1500:29:58-11851101--
#62 162894Chudzicka-Główka MagdalenaLeroy Merlin Opole, Opole00:30:3900:30:3644-2441--
#63 163625Alagierska EwaCGW Razem w Biegu/ PZU SPORT TEAM,00:30:5200:30:4445--42--
#64 164773Szwed TomaszRacibórz00:30:5300:30:36-119----
#65 165670Gadecka KarolinaStare Budkowice00:30:5600:30:4346--43--
#66 166536Zadrożny ZbigniewPrzydroże Małe00:30:5800:30:56-120-102--
#67 167701Dolny ArturBiegamBoNieMuszę Opole, Opole00:31:0600:30:45-12152103--
#68 168703Ogorzelec KazimierzOpole00:31:1700:30:55-12253104--
#69 169838Piątkowski ŁukaszOpole00:31:2000:30:55-12354105--
#70 170760Pelc KatarzynaOpole00:31:2900:31:1047-2544--
#71 171607Golak ŁukaszGoggle Pro Active Eyewear, Poznań00:31:3000:31:22-124----
#72 172708Strzałek PatrycjaCGW Razem w Biegu/ PZU SPORT TEAM,00:31:3000:31:2548--45--
#73 173709Mytnik MagdalenaCGW - RAZEM W BIEGU, Opole00:31:3000:31:2549-2646--
#74 174775Olejnik HenrykOpole00:31:5000:31:40-12555106--
#75 175710Wojdyła MieczysławTradycja i Jakosc, Wrocław00:31:5900:31:34-126----
#76 176768Wężyk KrzysztofOpole00:32:0100:31:53-12756107--
#77 177896Bartyla NataliaAldona Team, Osowiec00:32:1200:31:5250--47--
#78 178690Maciałek MałgorzataKOLKA TEAM OPOLE, Opole00:32:1400:31:5751-2748--
#79 179898Pytel RomanOtmice00:32:1500:32:04-128-108--
#80 180728Kordowska MichalinaOpole00:32:2400:32:1352-2849--
#81 181718Łopianiak PaulinaBBL Opole, Opole00:32:3600:32:2153-29506-
#82 182671Rose AleksandraOpole00:32:3800:32:2954-3051--
#83 183706Gawron JakubPolska Nowa Wieś00:32:4200:32:18-129-109--
#84 184679Beśka JolantaKrapkowice00:32:4300:32:3955--52--
#85 185834Patoła Ewa-, Opole00:32:4600:32:3056-3153--
#86 186654Stawiarz-Kardasińska Justynamam wspaniałego mężulka :-), Opole00:32:5400:32:5357-3254--
#87 187860Kania WeronikaCCIG, Opole00:32:5500:32:4358-3355--
#88 188868Szczotka MartaCCIG, Opole00:32:5500:32:4259-3456--
#89 189848Cieślar Lilianazrodlodobra.blogspot.com, Opole00:33:0100:32:4860-3557--
#90 190740Michniewicz TadeuszKnurów00:33:0300:32:48-130----
#91 191754Gawron MikołajPolska Nowa Wieś00:33:0800:32:44-131-110--
#92 192805Pawłowicz MartaPrószków00:33:0800:32:5761--58--
#93 193843Hernes WiesławEkonomik Team Opole, Opole00:33:1500:32:53-13257111--
#94 194736Wiej AdamOpole00:33:3300:32:40-13358112--
#95 195899Piętka UrszulaECO S.A., Opole00:33:3600:33:3162-3659--
#96 196850Głośnicka AdriannaOpole00:33:5500:33:4063-3760--
#97 197628Kacik-Kurdyna MonikaCGW Razem w Biegu/ PZU SPORT TEAM,00:33:5900:33:5164-3861--
#98 198693Górecka AnnaCGW Razem w Biegu/ PZU SPORT TEAM,00:34:0100:33:5365--62--
#99 199634Wośko AniaGliwice00:34:0300:33:4866-----
#100 200827Burcan AdrianaOpole00:34:0500:33:4967-3963--

Google Play

wyniki sporty wytrzymałośćiowe, bieganie, kolarstwo, MTB, triatlon, pływanie, duathlon, maraton, multisport http://www.cityzenklub.pl ligabiegowa.pl zawody & wyniki w jednym miejscu

Ta strona używa Cookies. Dowiedz się więcej o celu ich używania - przeczytaj naszą politykę prywatności.Korzystając ze strony wyrażasz zgodę na używanie cookie, zgodnie z aktualnymi ustawieniami przeglądarki.

enduhub.com jest thebeściak więc się zgadzam ! Polityka prywatności